Погода в Сиялкоте

Пакистан     32°31′25″N   74°33′06″E
темп.,
°C
ветер,
м/с
пор.,
м/с
влажн.,
%
обл.,
%
осадки,
мм/ч
давл.,
гПа
погр.,
м
16 мая, вс
вс1623:00+28с2333100 0.2 100648
02:00+28св223280 0.2 100627
05:00+26св3439100 0.2 100687
08:00+31св222692 0.0 1008450
11:00+36зюз221990 0.0 10081737
14:00+39зсз541550 0.0 10053389
17:00+38зсз44153 0.0 10033159
20:00+33сз36248 0.0 1004123
17 мая, пн
пн1723:00+31ссз3628100 0.0 1006104
02:00+29зсз2333100 0.0 100669
05:00+28с3333100 0.0 100660
08:00+33с3421100 0.0 1006395
11:00+39зсз331420 0.0 10063024
14:00+41з54130 0.0 10023853
17:00+40зсз54120 0.0 10013923
20:00+34сз37170 0.0 1002103
18 мая, вт
вт1823:00+31ссз36210 0.0 100394
02:00+29ссв33260 0.0 100240
05:00+27всв33310 0.0 100336
08:00+34вюв67230 0.0 1004767
11:00+38ююв43150 0.0 10042087
14:00+41зюз43110 0.0 10014108
17:00+40з33111 0.0 9994399
20:00+35с221636 0.0 100131
19 мая, ср
ср1923:00+31в362896 0.3 1004137
02:00+30в223396 0.9 100333
05:00+28ссв223440 0.9 100224
08:00+33ссв222481 0.0 1004497
11:00+39сз121786 0.0 10022152
14:00+40ююз2416100 0.0 9993921
17:00+34ююз7926100 0.1 998323
20:00+32с61029100 0.1 1000261
20 мая, чт
чт2023:00+32в2630100 0.2 1000174
02:00+31всв1232100 0.0 99922
05:00+30в2334100 0.0 100082
08:00+32юв7830100 0.1 1002985
11:00+35ю4326100 0.1 10022172
14:00+36юв652497 0.0 10002693
17:00+31юв673888 0.4 1000829
20:00+28юв5741100 0.1 1001597